TimeEDT,TemperatureF,Dew PointF,Humidity,Sea Level PressureIn,VisibilityMPH,Wind Direction,Wind SpeedMPH,Gust SpeedMPH,PrecipitationIn,Events,Conditions,WindDirDegrees,DateUTC
12:58 AM,66.4,52.3,61,30.19,10.0,NNW,2.3,-,N/A,,Clear,340,2013-05-02 04:58:00
1:58 AM,61.9,55.6,80,30.19,10.0,NNE,4.6,-,N/A,,Scattered Clouds,30,2013-05-02 05:58:00
2:58 AM,62.6,52.0,68,30.19,10.0,Calm,Calm,-,N/A,,Scattered Clouds,0,2013-05-02 06:58:00
3:58 AM,62.2,51.4,68,30.19,10.0,North,2.3,-,N/A,,Scattered Clouds,360,2013-05-02 07:58:00
4:58 AM,59.4,54.5,84,30.20,10.0,North,3.5,-,N/A,,Scattered Clouds,10,2013-05-02 08:58:00
5:58 AM,58.8,50.5,74,30.20,10.0,NE,4.6,-,N/A,,Scattered Clouds,50,2013-05-02 09:58:00
6:58 AM,57.2,49.3,75,30.21,10.0,NE,2.3,-,N/A,,Mostly Cloudy,50,2013-05-02 10:58:00
7:58 AM,62.1,51.4,68,30.23,10.0,East,4.6,-,N/A,,Mostly Cloudy,90,2013-05-02 11:58:00
8:55 AM,63.9,50.9,63,30.24,10.0,SE,10.4,-,N/A,,Mostly Cloudy,130,2013-05-02 12:55:00
8:56 AM,63.9,50.9,63,30.24,10.0,SE,10.4,-,N/A,,Mostly Cloudy,130,2013-05-02 12:56:00
9:58 AM,64.4,51.8,64,30.24,10.0,SE,9.2,-,N/A,,Mostly Cloudy,130,2013-05-02 13:58:00
10:55 AM,65.5,51.1,60,30.24,10.0,SSE,11.5,-,N/A,,Mostly Cloudy,150,2013-05-02 14:55:00
11:55 AM,66.9,51.6,58,30.23,10.0,ESE,11.5,-,N/A,,Mostly Cloudy,120,2013-05-02 15:55:00
12:55 PM,69.4,52.2,54,30.21,10.0,Variable,4.6,-,N/A,,Mostly Cloudy,0,2013-05-02 16:55:00
1:55 PM,70.7,53.1,54,30.19,10.0,SE,15.0,-,N/A,,Overcast,140,2013-05-02 17:55:00
2:56 PM,72.3,53.4,51,30.18,10.0,ESE,9.2,-,N/A,,Mostly Cloudy,120,2013-05-02 18:56:00
3:55 PM,73.2,52.7,48,30.17,10.0,SE,8.1,-,N/A,,Mostly Cloudy,140,2013-05-02 19:55:00
4:55 PM,72.0,52.7,51,30.15,10.0,SSE,10.4,-,N/A,,Mostly Cloudy,160,2013-05-02 20:55:00
5:58 PM,71.6,52.3,51,30.27,10.0,SSE,9.2,-,N/A,,Mostly Cloudy,150,2013-05-02 21:58:00
6:55 PM,71.4,52.5,51,30.13,10.0,SE,6.9,-,N/A,,Mostly Cloudy,140,2013-05-02 22:55:00
7:58 PM,70.0,53.2,55,30.12,10.0,SE,5.8,-,N/A,,Mostly Cloudy,140,2013-05-02 23:58:00
8:58 PM,67.3,52.2,58,30.12,10.0,SE,1.2,-,N/A,,Mostly Cloudy,130,2013-05-03 00:58:00
9:58 PM,64.9,52.7,64,30.13,10.0,Calm,Calm,-,N/A,,Mostly Cloudy,0,2013-05-03 01:58:00
10:58 PM,63.3,53.4,70,30.12,10.0,Calm,Calm,-,N/A,,Mostly Cloudy,0,2013-05-03 02:58:00
11:58 PM,64.0,53.8,69,30.11,10.0,Calm,Calm,-,N/A,,Mostly Cloudy,0,2013-05-03 03:58:00